Year,Month,Day,Hour,Minute,Value (Times are PST for temperature in C)
2010,03,23,10,55,7.10
2010,03,23,10,56,7.10
2010,03,23,10,57,7.10
2010,03,23,10,58,7.20
2010,03,23,10,59,7.20
2010,03,23,11,00,7.20
2010,03,23,11,01,7.20
2010,03,23,11,02,7.10
2010,03,23,11,03,7.10
2010,03,23,11,04,7.00
2010,03,23,11,05,7.00
2010,03,23,11,06,6.90
2010,03,23,11,07,6.90
2010,03,23,11,08,6.90
2010,03,23,11,09,6.80
2010,03,23,11,10,6.80
2010,03,23,11,11,6.80
2010,03,23,11,12,6.70
2010,03,23,11,14,6.70
2010,03,23,11,15,6.70
2010,03,23,11,16,6.70
2010,03,23,11,17,6.70
2010,03,23,11,18,6.70
2010,03,23,11,19,6.70
2010,03,23,11,20,6.70
2010,03,23,11,21,6.70
2010,03,23,11,22,6.70
2010,03,23,11,23,6.80
2010,03,23,11,24,6.80
2010,03,23,11,25,6.80
2010,03,23,11,26,6.80
2010,03,23,11,27,6.80
2010,03,23,11,28,6.80
2010,03,23,11,29,6.80
2010,03,23,11,30,6.80
2010,03,23,11,31,6.80
2010,03,23,11,32,6.90
2010,03,23,11,33,6.90
2010,03,23,11,34,6.90
2010,03,23,11,35,6.90
2010,03,23,11,36,7.00
2010,03,23,11,37,7.00
2010,03,23,11,38,7.10
2010,03,23,11,39,7.10
2010,03,23,11,40,7.10
2010,03,23,11,41,7.10
2010,03,23,11,42,7.20
2010,03,23,11,43,7.20
2010,03,23,11,44,7.20
2010,03,23,11,45,7.30
2010,03,23,11,46,7.30
2010,03,23,11,47,7.40
2010,03,23,11,48,7.50
2010,03,23,11,49,7.60
2010,03,23,11,50,7.60
2010,03,23,11,51,7.70
2010,03,23,11,52,7.80
2010,03,23,11,53,7.80
2010,03,23,11,54,7.90
2010,03,23,11,55,7.90
2010,03,23,11,56,8.00
2010,03,23,11,57,8.10
2010,03,23,11,58,8.10
2010,03,23,11,59,8.10
2010,03,23,12,00,8.20
2010,03,23,12,01,8.20
2010,03,23,12,02,8.20
2010,03,23,12,03,8.30
2010,03,23,12,04,8.30
2010,03,23,12,05,8.40
2010,03,23,12,06,8.40
2010,03,23,12,07,8.50
2010,03,23,12,08,8.50
2010,03,23,12,09,8.60
2010,03,23,12,10,8.60
2010,03,23,12,11,8.70
2010,03,23,12,12,8.70
2010,03,23,12,13,8.80
2010,03,23,12,14,8.80
2010,03,23,12,15,8.90
2010,03,23,12,16,8.90
2010,03,23,12,17,9.10
2010,03,23,12,18,9.20
2010,03,23,12,19,9.20
2010,03,23,12,20,9.20
2010,03,23,12,21,9.20
2010,03,23,12,22,9.20
2010,03,23,12,23,9.20
2010,03,23,12,24,9.20
2010,03,23,12,25,9.20
2010,03,23,12,26,9.20
2010,03,23,12,27,9.20
2010,03,23,12,28,9.20
2010,03,23,12,29,9.20
2010,03,23,12,30,9.30
2010,03,23,12,31,9.30
2010,03,23,12,32,9.30
2010,03,23,12,33,9.30
2010,03,23,12,34,9.40
2010,03,23,12,35,9.40
2010,03,23,12,36,9.40
2010,03,23,12,37,9.50
2010,03,23,12,38,9.50
2010,03,23,12,39,9.60
2010,03,23,12,40,9.60
2010,03,23,12,41,9.60
2010,03,23,12,42,9.60
2010,03,23,12,43,9.60
2010,03,23,12,44,9.60
2010,03,23,12,45,9.60
2010,03,23,12,46,9.70
2010,03,23,12,47,9.70
2010,03,23,12,48,9.70
2010,03,23,12,49,9.70
2010,03,23,12,50,9.70
2010,03,23,12,51,9.70
2010,03,23,12,52,9.80
2010,03,23,12,53,9.80
2010,03,23,12,54,9.90
2010,03,23,12,55,9.90
2010,03,23,12,56,10.00
2010,03,23,12,57,10.00
2010,03,23,12,58,10.10
2010,03,23,12,59,10.10
2010,03,23,13,00,10.20
2010,03,23,13,01,10.20
2010,03,23,13,02,10.20
2010,03,23,13,03,10.20
2010,03,23,13,04,10.20
2010,03,23,13,05,10.30
2010,03,23,13,06,10.20
2010,03,23,13,07,10.20
2010,03,23,13,08,10.20
2010,03,23,13,09,10.10
2010,03,23,13,10,10.10
2010,03,23,13,11,10.10
2010,03,23,13,12,10.10
2010,03,23,13,13,10.10
2010,03,23,13,14,10.10
2010,03,23,13,15,10.10
2010,03,23,13,16,10.10
2010,03,23,13,17,10.10
2010,03,23,13,18,10.10
2010,03,23,13,19,10.10
2010,03,23,13,20,10.10
2010,03,23,13,21,10.20
2010,03,23,13,22,10.20
2010,03,23,13,23,10.10
2010,03,23,13,24,10.20
2010,03,23,13,25,10.20
2010,03,23,13,26,10.20
2010,03,23,13,27,10.20
2010,03,23,13,28,10.20
2010,03,23,13,29,10.20
2010,03,23,13,30,10.20
2010,03,23,13,31,10.20
2010,03,23,13,32,10.20
2010,03,23,13,33,10.20
2010,03,23,13,34,10.20
2010,03,23,13,35,10.20
2010,03,23,13,36,10.20
2010,03,23,13,37,10.20
2010,03,23,13,38,10.20
2010,03,23,13,39,10.20
2010,03,23,13,40,10.20
2010,03,23,13,41,10.30
2010,03,23,13,42,10.30
2010,03,23,13,43,10.30
2010,03,23,13,44,10.30
2010,03,23,13,45,10.30
2010,03,23,13,46,10.30
2010,03,23,13,47,10.30
2010,03,23,13,48,10.30
2010,03,23,13,49,10.30
2010,03,23,13,50,10.30
2010,03,23,13,51,10.30
2010,03,23,13,52,10.30
2010,03,23,13,53,10.30
2010,03,23,13,54,10.30
2010,03,23,13,55,10.40
2010,03,23,13,56,10.40
2010,03,23,13,57,10.40
2010,03,23,13,58,10.50
2010,03,23,13,59,10.50
2010,03,23,14,00,10.50
2010,03,23,14,01,10.60
2010,03,23,14,02,10.60
2010,03,23,14,03,10.70
2010,03,23,14,04,10.70
2010,03,23,14,05,10.80
2010,03,23,14,06,10.80
2010,03,23,14,07,10.80
2010,03,23,14,08,10.90
2010,03,23,14,09,10.90
2010,03,23,14,10,10.90
2010,03,23,14,11,11.10
2010,03,23,14,12,11.10
2010,03,23,14,13,11.20
2010,03,23,14,14,11.20
2010,03,23,14,15,11.30
2010,03,23,14,16,11.40
2010,03,23,14,17,11.50
2010,03,23,14,18,11.60
2010,03,23,14,19,11.70
2010,03,23,14,20,11.80
2010,03,23,14,21,11.80
2010,03,23,14,22,11.80
2010,03,23,14,23,11.80
2010,03,23,14,24,11.90
2010,03,23,14,25,11.80
2010,03,23,14,26,11.80
2010,03,23,14,27,11.70
2010,03,23,14,28,11.70
2010,03,23,14,29,11.70
2010,03,23,14,30,11.70
2010,03,23,14,31,11.60
2010,03,23,14,32,11.60
2010,03,23,14,33,11.60
2010,03,23,14,34,11.50
2010,03,23,14,35,11.50
2010,03,23,14,36,11.50
2010,03,23,14,37,11.60
2010,03,23,14,38,11.50
2010,03,23,14,39,11.50
2010,03,23,14,40,11.50
2010,03,23,14,41,11.50
2010,03,23,14,42,11.50
2010,03,23,14,43,11.50
2010,03,23,14,44,11.40
2010,03,23,14,45,11.40
2010,03,23,14,46,11.40
2010,03,23,14,47,11.40
2010,03,23,14,48,11.30
2010,03,23,14,49,11.30
2010,03,23,14,50,11.30
2010,03,23,14,51,11.30
2010,03,23,14,52,11.20
2010,03,23,14,53,11.20
2010,03,23,14,54,11.10
2010,03,23,14,55,11.10
2010,03,23,14,56,11.00
2010,03,23,14,57,10.90
2010,03,23,14,58,10.90
2010,03,23,14,59,10.90
2010,03,23,15,00,10.90
2010,03,23,15,01,10.90
2010,03,23,15,02,10.90
2010,03,23,15,03,10.90
2010,03,23,15,04,10.90
2010,03,23,15,05,10.90
2010,03,23,15,06,10.90
2010,03,23,15,07,10.90
2010,03,23,15,08,10.90
2010,03,23,15,09,10.90
2010,03,23,15,10,10.90
2010,03,23,15,11,10.90
2010,03,23,15,12,11.00
2010,03,23,15,13,11.00
2010,03,23,15,14,11.00
2010,03,23,15,15,11.10
2010,03,23,15,16,11.10
2010,03,23,15,17,11.10
2010,03,23,15,18,11.10
2010,03,23,15,19,11.20
2010,03,23,15,20,11.20
2010,03,23,15,21,11.20
2010,03,23,15,22,11.30
2010,03,23,15,23,11.30
2010,03,23,15,24,11.30
2010,03,23,15,25,11.30
2010,03,23,15,26,11.30
2010,03,23,15,27,11.30
2010,03,23,15,28,11.40
2010,03,23,15,29,11.40
2010,03,23,15,30,11.40
2010,03,23,15,31,11.40
2010,03,23,15,32,11.40
2010,03,23,15,33,11.40
2010,03,23,15,34,11.50
2010,03,23,15,35,11.50
2010,03,23,15,36,11.60
2010,03,23,15,37,11.60
2010,03,23,15,38,11.60
2010,03,23,15,39,11.70
2010,03,23,15,40,11.70
2010,03,23,15,41,11.80
2010,03,23,15,42,11.80
2010,03,23,15,43,11.80
2010,03,23,15,44,11.80
2010,03,23,15,45,11.90
2010,03,23,15,46,11.90
2010,03,23,15,47,11.90
2010,03,23,15,48,11.80
2010,03,23,15,49,11.80
2010,03,23,15,50,11.80
2010,03,23,15,51,11.80
2010,03,23,15,52,11.80
2010,03,23,15,53,11.80
2010,03,23,15,54,11.80
2010,03,23,15,55,11.90
2010,03,23,15,56,11.90
2010,03,23,15,57,12.00
2010,03,23,15,58,12.00
2010,03,23,15,59,11.90
2010,03,23,16,00,11.90
2010,03,23,16,01,11.90
2010,03,23,16,02,11.90
2010,03,23,16,03,12.00
2010,03,23,16,04,12.00
2010,03,23,16,05,11.90
2010,03,23,16,06,11.80
2010,03,23,16,07,11.80
2010,03,23,16,08,11.80
2010,03,23,16,09,11.80
2010,03,23,16,10,11.70
2010,03,23,16,11,11.70
2010,03,23,16,12,11.70
2010,03,23,16,13,11.60
2010,03,23,16,14,11.60
2010,03,23,16,15,11.60
2010,03,23,16,16,11.60
2010,03,23,16,17,11.60
2010,03,23,16,18,11.60
2010,03,23,16,19,11.60
2010,03,23,16,20,11.60
2010,03,23,16,21,11.60
2010,03,23,16,22,11.60
2010,03,23,16,23,11.60
2010,03,23,16,24,11.60
2010,03,23,16,25,11.60
2010,03,23,16,26,11.60
2010,03,23,16,27,11.60
2010,03,23,16,28,11.60
2010,03,23,16,30,11.60
2010,03,23,16,31,11.50
2010,03,23,16,32,11.50
2010,03,23,16,33,11.40
2010,03,23,16,34,11.40
2010,03,23,16,35,11.40
2010,03,23,16,36,11.40
2010,03,23,16,37,11.40
2010,03,23,16,38,11.30
2010,03,23,16,39,11.30
2010,03,23,16,40,11.30
2010,03,23,16,41,11.30
2010,03,23,16,42,11.30
2010,03,23,16,43,11.20
2010,03,23,16,44,11.20
2010,03,23,16,45,11.20
2010,03,23,16,46,11.20
2010,03,23,16,47,11.20
2010,03,23,16,48,11.20
2010,03,23,16,49,11.20
2010,03,23,16,50,11.10
2010,03,23,16,51,11.10
2010,03,23,16,52,11.10
2010,03,23,16,53,11.10
2010,03,23,16,54,11.00
2010,03,23,16,55,11.00
2010,03,23,16,56,11.00
2010,03,23,16,57,10.90
2010,03,23,16,58,11.00
2010,03,23,16,59,10.90
2010,03,23,17,00,11.00
2010,03,23,17,01,10.90
2010,03,23,17,02,10.90
2010,03,23,17,03,10.90
2010,03,23,17,04,10.90
2010,03,23,17,05,10.90
2010,03,23,17,06,10.90
2010,03,23,17,07,10.90
2010,03,23,17,08,10.90
2010,03,23,17,09,10.90
2010,03,23,17,10,10.90
2010,03,23,17,11,10.90
2010,03,23,17,12,10.90
2010,03,23,17,13,10.90
2010,03,23,17,14,10.90
2010,03,23,17,15,10.90
2010,03,23,17,16,10.90
2010,03,23,17,17,10.90
2010,03,23,17,18,10.90
2010,03,23,17,19,10.90
2010,03,23,17,20,10.90
2010,03,23,17,21,10.90
2010,03,23,17,22,11.00
2010,03,23,17,23,11.00
2010,03,23,17,24,11.00
2010,03,23,17,25,11.00
2010,03,23,17,26,11.00
2010,03,23,17,27,11.00
2010,03,23,17,28,11.00
2010,03,23,17,29,11.00
2010,03,23,17,30,11.00
2010,03,23,17,31,11.00
2010,03,23,17,32,11.00
2010,03,23,17,33,11.00
2010,03,23,17,34,11.10
2010,03,23,17,35,11.10
2010,03,23,17,36,11.10
2010,03,23,17,37,11.10
2010,03,23,17,38,11.10
2010,03,23,17,39,11.00
2010,03,23,17,40,11.00
2010,03,23,17,41,11.00
2010,03,23,17,42,11.00
2010,03,23,17,43,11.00
2010,03,23,17,44,11.00
2010,03,23,17,45,11.00
2010,03,23,17,46,11.00
2010,03,23,17,47,11.00
2010,03,23,17,48,11.00
2010,03,23,17,49,11.00
2010,03,23,17,50,11.00
2010,03,23,17,51,11.00
2010,03,23,17,52,10.90
2010,03,23,17,53,10.90
2010,03,23,17,54,10.90
2010,03,23,17,55,10.90
2010,03,23,17,56,10.90
2010,03,23,17,57,10.90
2010,03,23,17,58,10.80
2010,03,23,17,59,10.80
2010,03,23,18,00,10.80
2010,03,23,18,01,10.80
2010,03,23,18,02,10.80
2010,03,23,18,03,10.80
2010,03,23,18,04,10.80
2010,03,23,18,05,10.80
2010,03,23,18,06,10.80
2010,03,23,18,07,10.80
2010,03,23,18,08,10.80
2010,03,23,18,09,10.80
2010,03,23,18,10,10.80
2010,03,23,18,11,10.70
2010,03,23,18,12,10.70
2010,03,23,18,13,10.70
2010,03,23,18,14,10.70
2010,03,23,18,15,10.70
2010,03,23,18,16,10.70
2010,03,23,18,17,10.70
2010,03,23,18,18,10.70
2010,03,23,18,19,10.70
2010,03,23,18,20,10.60
2010,03,23,18,21,10.60
2010,03,23,18,22,10.60
2010,03,23,18,23,10.60
2010,03,23,18,24,10.60
2010,03,23,18,25,10.60
2010,03,23,18,26,10.60
2010,03,23,18,27,10.60
2010,03,23,18,28,10.60
2010,03,23,18,29,10.50
2010,03,23,18,30,10.50
2010,03,23,18,31,10.50
2010,03,23,18,32,10.50
2010,03,23,18,33,10.50
2010,03,23,18,34,10.50
2010,03,23,18,35,10.40
2010,03,23,18,36,10.40
2010,03,23,18,37,10.40
2010,03,23,18,38,10.40
2010,03,23,18,39,10.40
2010,03,23,18,40,10.40
2010,03,23,18,41,10.40
2010,03,23,18,42,10.40
2010,03,23,18,43,10.40
2010,03,23,18,44,10.40
2010,03,23,18,45,10.40
2010,03,23,18,46,10.40
2010,03,23,18,47,10.30
2010,03,23,18,48,10.40
2010,03,23,18,49,10.30
2010,03,23,18,50,10.30
2010,03,23,18,51,10.30
2010,03,23,18,52,10.30
2010,03,23,18,53,10.30
2010,03,23,18,54,10.30
2010,03,23,18,55,10.30
2010,03,23,18,56,10.30
2010,03,23,18,57,10.30
2010,03,23,18,58,10.30
2010,03,23,18,59,10.30
2010,03,23,19,00,10.20
2010,03,23,19,01,10.20
2010,03,23,19,02,10.20
2010,03,23,19,03,10.20
2010,03,23,19,04,10.20
2010,03,23,19,05,10.20
2010,03,23,19,06,10.20
2010,03,23,19,07,10.20
2010,03,23,19,08,10.10
2010,03,23,19,09,10.10
2010,03,23,19,10,10.10
2010,03,23,19,11,10.10
2010,03,23,19,12,10.10
2010,03,23,19,13,10.00
2010,03,23,19,14,10.00
2010,03,23,19,15,10.00
2010,03,23,19,16,9.90
2010,03,23,19,17,9.90
2010,03,23,19,18,9.90
2010,03,23,19,19,9.90
2010,03,23,19,20,9.90
2010,03,23,19,21,9.90
2010,03,23,19,22,9.80
2010,03,23,19,23,9.80
2010,03,23,19,24,9.80
2010,03,23,19,25,9.80
2010,03,23,19,26,9.80
2010,03,23,19,27,9.80
2010,03,23,19,28,9.80
2010,03,23,19,29,9.80
2010,03,23,19,30,9.80
2010,03,23,19,31,9.80
2010,03,23,19,32,9.80
2010,03,23,19,33,9.80
2010,03,23,19,34,9.80
2010,03,23,19,35,9.80
2010,03,23,19,36,9.80
2010,03,23,19,37,9.80
2010,03,23,19,38,9.80
2010,03,23,19,39,9.80
2010,03,23,19,40,9.80
2010,03,23,19,41,9.70
2010,03,23,19,42,9.70
2010,03,23,19,43,9.70
2010,03,23,19,44,9.70
2010,03,23,19,45,9.70
2010,03,23,19,46,9.70
2010,03,23,19,47,9.70
2010,03,23,19,48,9.70
2010,03,23,19,49,9.70
2010,03,23,19,50,9.60
2010,03,23,19,51,9.60
2010,03,23,19,52,9.60
2010,03,23,19,53,9.60
2010,03,23,19,54,9.60
2010,03,23,19,55,9.60
2010,03,23,19,56,9.60
2010,03,23,19,57,9.50
2010,03,23,19,58,9.50
2010,03,23,19,59,9.50
2010,03,23,20,00,9.40
2010,03,23,20,01,9.40
2010,03,23,20,02,9.40
2010,03,23,20,03,9.40
2010,03,23,20,04,9.40
2010,03,23,20,05,9.30
2010,03,23,20,06,9.30
2010,03,23,20,07,9.30
2010,03,23,20,08,9.30
2010,03,23,20,09,9.30
2010,03,23,20,10,9.20
2010,03,23,20,11,9.20
2010,03,23,20,12,9.20
2010,03,23,20,13,9.20
2010,03,23,20,14,9.20
2010,03,23,20,15,9.10
2010,03,23,20,16,9.10
2010,03,23,20,17,9.10
2010,03,23,20,18,9.10
2010,03,23,20,19,9.10
2010,03,23,20,20,9.00
2010,03,23,20,21,9.00
2010,03,23,20,22,8.90
2010,03,23,20,23,8.90
2010,03,23,20,24,8.90
2010,03,23,20,25,8.90
2010,03,23,20,26,8.90
2010,03,23,20,27,8.90
2010,03,23,20,28,8.80
2010,03,23,20,29,8.80
2010,03,23,20,30,8.80
2010,03,23,20,31,8.80
2010,03,23,20,32,8.80
2010,03,23,20,33,8.80
2010,03,23,20,34,8.80
2010,03,23,20,35,8.80
2010,03,23,20,36,8.70
2010,03,23,20,37,8.70
2010,03,23,20,38,8.70
2010,03,23,20,39,8.70
2010,03,23,20,40,8.70
2010,03,23,20,41,8.70
2010,03,23,20,42,8.70
2010,03,23,20,43,8.70
2010,03,23,20,44,8.70
2010,03,23,20,45,8.70
2010,03,23,20,46,8.60
2010,03,23,20,47,8.60
2010,03,23,20,48,8.60
2010,03,23,20,49,8.60
2010,03,23,20,50,8.60
2010,03,23,20,51,8.60
2010,03,23,20,52,8.60
2010,03,23,20,53,8.50
2010,03,23,20,54,8.40
2010,03,23,20,55,8.40
2010,03,23,20,56,8.40
2010,03,23,20,57,8.40
2010,03,23,20,58,8.30
2010,03,23,20,59,8.30
2010,03,23,21,00,8.30
2010,03,23,21,01,8.30
2010,03,23,21,02,8.30
2010,03,23,21,03,8.30
2010,03,23,21,04,8.20
2010,03,23,21,05,8.20
2010,03,23,21,06,8.20
2010,03,23,21,07,8.10
2010,03,23,21,08,8.10
2010,03,23,21,09,8.10
2010,03,23,21,10,8.00
2010,03,23,21,11,7.90
2010,03,23,21,12,7.90
2010,03,23,21,13,7.80
2010,03,23,21,14,7.80
2010,03,23,21,15,7.80
2010,03,23,21,16,7.70
2010,03,23,21,17,7.70
2010,03,23,21,18,7.70
2010,03,23,21,19,7.70
2010,03,23,21,20,7.60
2010,03,23,21,21,7.60
2010,03,23,21,22,7.60
2010,03,23,21,23,7.60
2010,03,23,21,24,7.50
2010,03,23,21,25,7.50
2010,03,23,21,26,7.40
2010,03,23,21,27,7.40
2010,03,23,21,28,7.40
2010,03,23,21,29,7.40
2010,03,23,21,30,7.40
2010,03,23,21,31,7.30
2010,03,23,21,32,7.30
2010,03,23,21,33,7.30
2010,03,23,21,34,7.30
2010,03,23,21,35,7.30
2010,03,23,21,36,7.20
2010,03,23,21,37,7.20
2010,03,23,21,38,7.20
2010,03,23,21,39,7.20
2010,03,23,21,40,7.20
2010,03,23,21,41,7.20
2010,03,23,21,42,7.20
2010,03,23,21,43,7.10
2010,03,23,21,44,7.10
2010,03,23,21,45,7.10
2010,03,23,21,46,7.10
2010,03,23,21,47,7.10
2010,03,23,21,48,7.10
2010,03,23,21,49,7.00
2010,03,23,21,50,7.00
2010,03,23,21,51,7.00
2010,03,23,21,52,6.90
2010,03,23,21,53,6.90
2010,03,23,21,54,6.90
2010,03,23,21,55,6.90
2010,03,23,21,56,6.90
2010,03,23,21,57,6.80
2010,03,23,21,58,6.80
2010,03,23,21,59,6.80
2010,03,23,22,00,6.80
2010,03,23,22,01,6.80
2010,03,23,22,02,6.70
2010,03,23,22,03,6.70
2010,03,23,22,04,6.70
2010,03,23,22,05,6.70
2010,03,23,22,06,6.70
2010,03,23,22,07,6.70
2010,03,23,22,08,6.60
2010,03,23,22,09,6.60
2010,03,23,22,10,6.60
2010,03,23,22,11,6.60
2010,03,23,22,12,6.60
2010,03,23,22,13,6.60
2010,03,23,22,14,6.60
2010,03,23,22,15,6.50
2010,03,23,22,16,6.50
2010,03,23,22,17,6.50
2010,03,23,22,18,6.50
2010,03,23,22,19,6.40
2010,03,23,22,20,6.40
2010,03,23,22,21,6.40
2010,03,23,22,22,6.40
2010,03,23,22,23,6.40
2010,03,23,22,24,6.40
2010,03,23,22,25,6.40
2010,03,23,22,26,6.30
2010,03,23,22,27,6.30
2010,03,23,22,28,6.30
2010,03,23,22,29,6.30
2010,03,23,22,30,6.30
2010,03,23,22,31,6.30
2010,03,23,22,32,6.30
2010,03,23,22,33,6.30
2010,03,23,22,34,6.30
2010,03,23,22,35,6.30
2010,03,23,22,36,6.30
2010,03,23,22,37,6.30
2010,03,23,22,38,6.30
2010,03,23,22,39,6.20
2010,03,23,22,40,6.20
2010,03,23,22,41,6.20
2010,03,23,22,42,6.20
2010,03,23,22,43,6.20
2010,03,23,22,44,6.10
2010,03,23,22,45,6.10
2010,03,23,22,46,6.10
2010,03,23,22,47,6.10
2010,03,23,22,48,6.10
2010,03,23,22,49,6.10
2010,03,23,22,50,6.00
2010,03,23,22,51,6.00
2010,03,23,22,52,5.90
2010,03,23,22,53,5.90
2010,03,23,22,54,5.90
2010,03,23,22,55,5.90
2010,03,23,22,56,5.90
2010,03,23,22,57,5.80
2010,03,23,22,58,5.80
2010,03,23,22,59,5.80
2010,03,23,23,00,5.80
2010,03,23,23,01,5.80
2010,03,23,23,02,5.80
2010,03,23,23,03,5.70
2010,03,23,23,04,5.70
2010,03,23,23,05,5.70
2010,03,23,23,06,5.70
2010,03,23,23,07,5.70
2010,03,23,23,08,5.60
2010,03,23,23,09,5.60
2010,03,23,23,10,5.60
2010,03,23,23,11,5.60
2010,03,23,23,12,5.50
2010,03,23,23,13,5.50
2010,03,23,23,14,5.50
2010,03,23,23,15,5.40
2010,03,23,23,16,5.40
2010,03,23,23,17,5.40
2010,03,23,23,18,5.40
2010,03,23,23,19,5.40
2010,03,23,23,20,5.40
2010,03,23,23,21,5.40
2010,03,23,23,22,5.30
2010,03,23,23,23,5.30
2010,03,23,23,24,5.30
2010,03,23,23,25,5.30
2010,03,23,23,26,5.30
2010,03,23,23,27,5.30
2010,03,23,23,28,5.30
2010,03,23,23,29,5.30
2010,03,23,23,30,5.30
2010,03,23,23,31,5.30
2010,03,23,23,32,5.30
2010,03,23,23,33,5.30
2010,03,23,23,34,5.30
2010,03,23,23,35,5.20
2010,03,23,23,36,5.20
2010,03,23,23,37,5.20
2010,03,23,23,38,5.20
2010,03,23,23,39,5.20
2010,03,23,23,40,5.10
2010,03,23,23,41,5.10
2010,03,23,23,42,5.10
2010,03,23,23,43,5.10
2010,03,23,23,44,5.10
2010,03,23,23,45,5.10
2010,03,23,23,46,5.10
2010,03,23,23,47,5.10
2010,03,23,23,48,5.10
2010,03,23,23,49,5.10
2010,03,23,23,50,5.10
2010,03,23,23,51,5.10
2010,03,23,23,52,5.10
2010,03,23,23,53,5.10
2010,03,23,23,54,5.00
2010,03,23,23,55,5.00
2010,03,23,23,56,5.00
2010,03,23,23,57,5.10
2010,03,23,23,58,5.00
2010,03,23,23,59,5.00
